Temp
59 59 60 60 60 60 59 60 60 60 61 61 62 61 61 61 60 60 61 62 63 64 66 66 65 66 66 68 71 72 72 71 71 71 71 69 67 67 66 66 64 65 65 64 62 61 61 60 59 57 52 43
57 58 59 59 59 59 59 59 59 59 59 59 59 59 59 58 57 58 59 60 61 62 62 64 66 65 66 66 69 71 71 71 71 71 71 70 68 65 66 65 66 64 65 64 62 61 60 60 59 57 53 42
54 57 57 57 58 58 58 58 58 58 58 57 57 57 57 56 56 56 57 58 59 60 60 59 60 63 67 66 65 67 71 71 70 70 70 70 69 68 65 66 64 65 64 64 63 61 60 59 58 58 50 42
52 55 56 56 56 56 57 57 57 57 56 55 55 55 55 54 53 54 54 56 55 58 58 57 58 61 63 65 66 66 69 70 70 70 70 70 69 68 66 64 63 63 63 64 62 61 59 58 58 50 40 40
50 53 54 53 54 55 55 55 55 55 54 54 53 53 53 53 52 51 51 52 53 55 54 55 56 59 61 63 63 65 66 66 69 70 70 69 69 68 65 63 62 60 62 63 62 60 58 58 50 44 43 42
49 49 53 52 51 51 52 53 53 52 51 52 51 53 51 51 52 51 50 50 53 52 53 53 55 56 59 61 62 62 62 64 65 69 69 69 69 68 66 63 57 58 60 61 61 59 58 51 43 43 43 43
47 48 49 50 51 50 52 51 51 51 51 50 50 50 51 51 50 50 50 51 52 52 54 53 54 55 57 58 58 59 60 60 62 64 69 69 69 67 64 58 54 51 54 58 59 58 54 44 42 41 43 43
44 45 46 47 48 50 50 50 50 50 50 50 49 49 51 50 50 49 49 51 52 52 51 51 53 54 54 54 55 55 55 57 58 59 62 67 65 62 58 53 52 54 53 53 54 51 46 43 40 40 42 43
43 43 43 44 45 46 48 48 48 49 49 49 48 49 50 49 49 48 48 48 50 50 50 49 49 50 50 49 50 53 50 51 51 52 51 55 53 49 51 50 50 52 52 50 49 46 42 41 40 40 41 38
43 43 42 42 44 45 44 44 45 46 46 47 48 48 48 49 49 48 48 48 47 48 48 49 49 49 49 48 49 50 49 49 48 48 47 47 48 47 49 50 49 51 51 46 44 43 41 41 40 39 37 37
41 40 41 41 44 43 43 44 42 42 42 43 44 46 47 47 47 47 47 47 46 46 47 47 47 47 47 48 48 49 48 48 48 47 47 45 46 45 45 46 48 50 49 48 46 43 41 40 40 39 38 37
40 39 40 42 43 41 44 43 41 41 41 41 40 42 43 46 46 46 45 46 46 45 46 46 46 46 46 46 47 49 48 47 46 46 46 45 45 44 45 45 46 47 46 47 46 43 42 41 42 41 39 38
38 39 39 39 39 39 45 41 41 40 41 40 40 39 38 40 41 41 43 44 45 44 45 45 46 45 45 45 46 47 47 47 46 46 45 45 44 45 45 44 43 44 44 45 44 43 42 42 42 41 39 38
38 38 38 38 38 39 42 39 40 40 39 39 39 40 39 38 39 38 40 40 41 41 42 43 45 45 44 45 45 46 45 45 45 44 44 45 44 43 44 41 41 41 42 41 40 42 40 40 41 40 39 38
38 38 37 38 37 38 38 38 39 39 38 38 39 40 39 38 38 41 38 38 37 37 38 39 41 43 43 43 44 45 44 44 44 44 43 44 44 44 45 41 40 40 39 41 38 41 39 39 39 39 38 37
37 37 36 37 37 37 38 38 37 37 37 39 38 39 38 38 38 40 39 37 37 37 37 37 37 38 40 42 43 44 43 43 43 43 43 43 44 44 41 39 39 38 38 41 40 40 39 39 39 39 39 38
37 37 37 37 37 37 38 37 37 36 37 37 38 38 38 38 38 40 39 38 38 39 36 36 35 36 38 39 42 42 42 42 41 40 40 41 42 40 40 39 39 41 39 42 41 38 38 38 38 38 38 37
38 37 37 39 36 37 37 35 35 36 37 36 37 37 37 36 37 39 38 38 37 36 36 36 35 35 35 37 37 40 40 38 37 38 39 40 39 40 39 39 39 38 39 39 39 39 38 37 38 37 36 36
39 39 37 35 35 36 35 36 35 35 36 35 36 37 36 37 37 38 37 37 36 37 36 36 35 34 35 36 35 34 35 37 36 37 39 41 38 40 37 38 39 39 39 39 39 39 38 36 37 36 36 35
38 37 36 36 38 36 34 34 35 34 35 35 34 35 36 36 37 37 36 36 35 35 36 34 35 35 36 34 34 33 32 34 35 37 37 37 39 39 38 37 38 38 38 39 39 39 38 37 36 36 36 35
37 37 36 36 35 34 34 34 34 34 34 35 36 35 35 36 37 36 36 36 36 34 35 35 35 34 35 34 32 32 31 31 33 34 36 36 37 39 38 37 38 38 38 39 40 39 38 38 37 36 36 36
37 37 37 35 33 35 34 34 34 33 34 34 34 34 35 35 35 37 36 36 35 34 35 35 35 35 34 34 31 31 30 31 31 31 32 33 33 35 36 35 36 37 38 39 40 38 38 38 38 37 37 37
37 37 36 35 34 33 34 35 34 34 33 33 34 34 35 35 36 36 36 36 36 34 34 34 33 34 33 33 30 29 30 29 31 33 31 32 32 34 35 35 36 37 39 41 41 40 38 38 38 38 38 38
35 35 34 34 34 33 35 35 35 36 34 34 33 35 35 35 35 35 36 35 35 34 34 33 33 33 31 31 30 30 31 31 30 31 31 31 32 32 33 34 35 36 37 38 38 39 39 37 37 37 37 37
32 31 31 32 32 32 33 33 36 35 34 34 34 34 35 35 35 35 34 35 34 33 35 34 32 32 30 30 31 30 31 32 31 31 31 30 33 33 31 32 33 35 37 36 36 37 37 36 36 37 37 35
32 31 31 30 31 33 33 32 32 31 33 33 34 34 34 35 35 34 33 34 33 34 32 32 32 30 30 30 29 31 32 32 33 33 31 30 29 31 32 30 34 35 37 34 34 35 34 34 33 34 35 34
31 32 32 31 32 33 32 33 33 33 32 33 32 32 32 33 33 33 32 32 33 33 32 32 31 31 30 30 31 30 29 30 29 30 30 30 30 29 30 32 33 33 35 34 36 36 36 33 32 33 31 33
32 32 33 32 32 32 31 30 33 33 32 30 29 29 32 32 32 33 32 32 31 33 32 31 32 32 30 30 30 29 29 29 30 30 29 29 30 31 29 30 29 34 34 35 34 32 33 34 34 33 32 32
31 31 30 31 31 31 31 31 30 29 29 30 31 31 29 32 34 32 32 32 31 32 32 31 31 30 31 29 29 29 28 28 29 30 30 30 30 30 29 29 29 31 33 34 36 35 34 31 31 33 36 35
30 29 28 27 25 25 26 25 27 26 27 29 29 30 33 33 33 32 31 31 31 31 32 29 29 28 28 29 29 29 28 29 29 29 29 30 30 30 30 30 30 28 33 33 35 36 36 35 31 33 33 35
29 27 27 26 25 25 24 24 26 29 30 30 31 32 31 32 32 31 31 32 31 30 29 29 28 28 28 28 27 30 29 28 28 29 29 30 30 30 31 30 29 29 29 31 33 35 35 36 35 33 32 31
MSLP
1020.25 1020.13 1019.97 1019.89 1019.77 1019.57 1019.61 1019.45 1019.33 1019.25 1019.25 1019.09 1018.89 1018.89 1018.81 1018.77 1018.65 1018.61 1018.61 1018.53 1018.33 1018.25 1018.17 1018.33 1018.45 1018.33 1018.21 1018.09 1017.81 1017.81 1017.85 1017.93 1018.01 1018.17 1018.41 1018.77 1019.09 1019.17 1019.33 1019.45 1019.85 1019.97 1020.17 1020.41 1020.57 1020.73 1020.97 1021.09 1021.37 1021.57 1021.89 1022.09
1020.65 1020.49 1020.33 1020.17 1020.05 1019.81 1019.77 1019.81 1019.77 1019.69 1019.73 1019.53 1019.33 1019.21 1019.17 1019.09 1019.05 1018.89 1018.89 1018.81 1018.65 1018.57 1018.53 1018.45 1018.25 1018.37 1018.33 1018.41 1018.05 1017.89 1017.89 1017.93 1018.01 1018.09 1018.25 1018.49 1018.81 1019.21 1019.17 1019.57 1019.65 1019.97 1020.01 1020.29 1020.49 1020.65 1020.93 1021.05 1021.21 1021.53 1021.89 1022.29
1021.01 1020.77 1020.65 1020.49 1020.29 1020.13 1020.17 1020.21 1020.21 1020.17 1020.17 1020.05 1019.89 1019.73 1019.49 1019.29 1019.17 1019.13 1019.05 1019.05 1018.97 1018.81 1018.81 1018.81 1018.69 1018.57 1018.29 1018.41 1018.49 1018.25 1017.93 1017.93 1017.97 1018.01 1018.17 1018.29 1018.57 1018.85 1019.09 1019.29 1019.65 1019.81 1019.97 1020.17 1020.37 1020.49 1020.85 1021.09 1021.13 1021.33 1021.89 1022.29
1021.37 1021.05 1020.89 1020.73 1020.65 1020.69 1020.65 1020.65 1020.65 1020.49 1020.49 1020.41 1020.17 1020.01 1019.89 1019.69 1019.49 1019.37 1019.29 1019.29 1019.25 1019.25 1019.13 1019.05 1018.93 1018.73 1018.69 1018.57 1018.53 1018.61 1018.21 1017.97 1017.93 1017.93 1018.05 1018.17 1018.41 1018.69 1019.01 1019.37 1019.69 1019.93 1020.09 1020.09 1020.41 1020.37 1020.73 1021.13 1021.21 1021.37 1021.93 1022.29
1021.77 1021.57 1021.37 1021.29 1021.21 1021.09 1021.05 1021.01 1020.89 1020.77 1020.69 1020.61 1020.57 1020.29 1020.21 1019.97 1019.77 1019.73 1019.65 1019.57 1019.53 1019.45 1019.41 1019.29 1019.17 1018.93 1018.73 1018.65 1018.73 1018.53 1018.41 1018.37 1018.09 1017.97 1017.97 1018.09 1018.21 1018.49 1018.89 1019.33 1019.53 1019.89 1020.13 1020.09 1020.37 1020.41 1020.69 1021.17 1021.45 1021.57 1021.73 1022.21
1022.21 1022.09 1021.89 1021.77 1021.69 1021.57 1021.45 1021.37 1021.21 1021.05 1021.01 1020.93 1020.81 1020.77 1020.61 1020.45 1020.21 1020.05 1019.93 1019.81 1019.81 1019.77 1019.65 1019.53 1019.37 1019.13 1018.89 1018.81 1018.81 1018.85 1018.81 1018.77 1018.61 1018.17 1017.93 1017.97 1018.05 1018.21 1018.49 1018.97 1019.29 1019.57 1019.97 1020.29 1020.37 1020.49 1020.65 1021.13 1021.57 1021.65 1021.49 1022.01
1022.49 1022.37 1022.25 1022.13 1021.97 1021.85 1021.69 1021.61 1021.49 1021.41 1021.37 1021.33 1021.17 1021.05 1020.89 1020.73 1020.61 1020.37 1020.13 1020.01 1020.05 1020.01 1019.85 1019.69 1019.53 1019.41 1019.29 1019.21 1019.13 1019.09 1019.05 1019.05 1018.89 1018.65 1018.17 1017.93 1017.97 1018.09 1018.33 1018.73 1019.13 1019.49 1019.77 1020.13 1020.37 1020.49 1020.69 1021.17 1021.57 1021.85 1021.53 1021.65
1022.65 1022.57 1022.49 1022.37 1022.21 1022.09 1022.01 1021.85 1021.77 1021.69 1021.61 1021.49 1021.41 1021.33 1021.13 1020.89 1020.73 1020.49 1020.37 1020.17 1020.05 1019.97 1019.89 1019.81 1019.69 1019.61 1019.53 1019.45 1019.45 1019.33 1019.21 1019.17 1019.21 1019.13 1018.89 1018.13 1018.05 1018.05 1018.21 1018.61 1019.01 1019.33 1019.65 1020.17 1020.45 1020.65 1020.89 1021.21 1021.53 1021.89 1021.77 1021.61
1022.77 1022.77 1022.69 1022.57 1022.41 1022.29 1022.21 1022.17 1022.13 1022.01 1021.89 1021.77 1021.65 1021.49 1021.29 1021.13 1021.01 1020.81 1020.61 1020.49 1020.33 1020.17 1020.01 1019.93 1019.89 1019.81 1019.69 1019.65 1019.69 1019.65 1019.61 1019.45 1019.33 1019.25 1019.29 1019.05 1018.37 1018.17 1018.29 1018.57 1018.85 1019.13 1019.53 1020.05 1020.53 1020.77 1020.97 1021.13 1021.49 1021.69 1021.81 1021.73
1023.09 1022.97 1022.81 1022.65 1022.49 1022.41 1022.33 1022.21 1022.21 1022.13 1022.01 1021.89 1021.69 1021.53 1021.41 1021.29 1021.13 1021.01 1020.89 1020.77 1020.57 1020.37 1020.13 1020.01 1020.05 1020.05 1020.01 1019.93 1019.89 1019.85 1019.85 1019.77 1019.69 1019.49 1019.41 1019.37 1019.45 1018.61 1018.25 1018.41 1018.73 1018.97 1019.29 1019.93 1020.49 1020.81 1021.01 1021.17 1021.41 1021.57 1021.69 1021.81
1023.29 1023.17 1023.09 1022.97 1022.69 1022.49 1022.33 1022.21 1022.25 1022.17 1022.09 1021.97 1021.85 1021.65 1021.53 1021.37 1021.29 1021.25 1021.21 1021.13 1021.01 1020.73 1020.45 1020.25 1020.13 1020.05 1020.01 1020.01 1020.01 1019.97 1019.97 1019.97 1019.93 1019.85 1019.61 1019.57 1019.41 1019.61 1019.09 1018.45 1018.65 1018.89 1019.17 1019.53 1020.05 1020.69 1020.89 1021.13 1021.25 1021.41 1021.53 1021.69
1023.53 1023.45 1023.25 1023.09 1022.93 1022.85 1022.61 1022.45 1022.29 1022.25 1022.17 1022.09 1021.97 1021.81 1021.73 1021.65 1021.61 1021.53 1021.45 1021.41 1021.25 1021.09 1020.89 1020.65 1020.41 1020.25 1020.13 1020.05 1020.05 1020.05 1020.05 1020.05 1019.97 1020.01 1019.85 1019.61 1019.57 1019.45 1019.85 1019.57 1018.73 1018.85 1019.17 1019.45 1019.73 1020.25 1020.73 1021.05 1021.21 1021.21 1021.37 1021.53
1023.77 1023.69 1023.57 1023.41 1023.29 1023.09 1022.81 1022.73 1022.61 1022.45 1022.17 1022.05 1021.97 1021.85 1021.81 1021.73 1021.73 1021.69 1021.65 1021.57 1021.41 1021.25 1021.09 1020.93 1020.69 1020.49 1020.33 1020.21 1020.13 1020.05 1020.17 1020.25 1020.17 1020.01 1020.13 1019.97 1019.73 1019.65 1019.57 1020.05 1019.93 1019.09 1019.17 1019.33 1019.65 1019.89 1020.33 1020.69 1021.01 1021.17 1021.33 1021.45
1023.77 1023.73 1023.65 1023.57 1023.53 1023.41 1023.17 1023.09 1022.89 1022.61 1022.41 1022.21 1022.01 1021.85 1021.77 1021.73 1021.69 1021.61 1021.57 1021.49 1021.37 1021.25 1021.09 1020.97 1020.85 1020.73 1020.53 1020.37 1020.21 1020.17 1020.17 1020.29 1020.33 1020.33 1020.13 1020.09 1019.97 1019.77 1019.57 1019.61 1020.13 1020.33 1019.45 1019.41 1019.53 1019.81 1020.05 1020.41 1020.61 1020.77 1020.97 1021.25
1023.89 1023.81 1023.69 1023.57 1023.53 1023.45 1023.37 1023.29 1023.13 1022.93 1022.73 1022.45 1022.25 1022.05 1021.89 1021.77 1021.69 1021.57 1021.49 1021.41 1021.37 1021.37 1021.25 1021.13 1021.01 1020.85 1020.77 1020.61 1020.37 1020.25 1020.29 1020.17 1020.29 1020.37 1020.37 1020.29 1020.13 1019.89 1019.69 1019.53 1019.73 1020.01 1020.45 1019.73 1019.61 1019.69 1019.93 1020.17 1020.53 1020.73 1020.89 1021.05
1023.89 1023.81 1023.73 1023.57 1023.49 1023.41 1023.37 1023.33 1023.29 1023.17 1022.97 1022.77 1022.53 1022.29 1022.09 1021.93 1021.81 1021.69 1021.49 1021.37 1021.25 1021.25 1021.21 1021.17 1021.05 1020.93 1020.73 1020.53 1020.45 1020.37 1020.29 1020.25 1020.21 1020.25 1020.29 1020.25 1020.17 1020.01 1019.85 1019.69 1019.61 1019.77 1020.13 1020.45 1019.85 1019.49 1019.69 1019.97 1020.25 1020.45 1020.73 1020.93
1023.81 1023.69 1023.61 1023.53 1023.45 1023.37 1023.33 1023.33 1023.29 1023.25 1023.09 1022.97 1022.73 1022.53 1022.29 1022.05 1021.89 1021.69 1021.61 1021.41 1021.29 1021.13 1021.09 1021.05 1020.97 1020.89 1020.69 1020.49 1020.29 1020.25 1020.29 1020.33 1020.21 1020.13 1020.09 1020.05 1019.97 1019.93 1019.77 1019.73 1019.65 1019.57 1019.69 1020.01 1020.29 1020.17 1019.61 1019.77 1019.97 1020.21 1020.49 1020.73
1023.93 1023.81 1023.65 1023.53 1023.45 1023.33 1023.29 1023.25 1023.25 1023.21 1023.13 1023.01 1022.81 1022.61 1022.37 1022.17 1021.97 1021.77 1021.61 1021.49 1021.33 1021.21 1021.09 1020.97 1020.89 1020.77 1020.61 1020.37 1020.21 1020.17 1020.17 1020.25 1020.33 1020.17 1020.01 1019.85 1019.85 1019.85 1019.73 1019.65 1019.61 1019.65 1019.53 1019.57 1019.93 1020.29 1020.17 1019.81 1019.69 1020.01 1020.33 1020.45
1024.13 1023.89 1023.69 1023.53 1023.41 1023.33 1023.25 1023.21 1023.17 1023.09 1023.01 1022.85 1022.73 1022.57 1022.37 1022.17 1021.93 1021.69 1021.49 1021.37 1021.33 1021.25 1021.21 1021.01 1020.85 1020.73 1020.53 1020.33 1020.13 1020.05 1020.09 1020.17 1020.13 1020.09 1019.93 1019.73 1019.53 1019.57 1019.65 1019.65 1019.57 1019.65 1019.45 1019.33 1019.45 1019.77 1020.25 1020.29 1019.85 1019.93 1019.93 1020.21
1024.33 1024.13 1023.93 1023.69 1023.45 1023.29 1023.25 1023.21 1023.09 1023.01 1022.89 1022.77 1022.65 1022.49 1022.33 1022.09 1021.77 1021.41 1021.21 1021.17 1021.21 1021.29 1021.13 1021.01 1020.85 1020.65 1020.45 1020.25 1020.05 1019.93 1019.97 1020.09 1020.05 1020.01 1019.93 1019.77 1019.61 1019.45 1019.37 1019.41 1019.45 1019.49 1019.61 1019.49 1019.25 1019.29 1019.69 1020.09 1020.41 1020.01 1019.89 1020.01
1024.17 1024.01 1023.85 1023.69 1023.49 1023.37 1023.25 1023.13 1022.97 1022.85 1022.69 1022.57 1022.41 1022.25 1022.13 1021.89 1021.61 1021.25 1021.05 1020.93 1021.01 1021.09 1021.05 1020.89 1020.77 1020.53 1020.37 1020.17 1020.01 1019.81 1019.85 1019.93 1019.97 1020.05 1019.97 1019.81 1019.69 1019.61 1019.49 1019.41 1019.41 1019.37 1019.45 1019.45 1019.29 1019.17 1019.17 1019.53 1020.05 1020.29 1019.97 1019.69
1024.29 1024.05 1023.85 1023.65 1023.45 1023.25 1023.13 1022.97 1022.89 1022.73 1022.57 1022.41 1022.21 1022.09 1021.97 1021.73 1021.45 1021.09 1020.89 1020.89 1020.89 1020.93 1020.85 1020.77 1020.61 1020.37 1020.21 1020.01 1019.89 1019.77 1019.77 1019.77 1019.89 1019.97 1019.93 1019.85 1019.65 1019.53 1019.45 1019.41 1019.29 1019.25 1019.21 1019.21 1019.21 1019.25 1019.21 1019.13 1019.37 1019.65 1019.97 1019.89
1024.49 1024.17 1023.89 1023.61 1023.29 1023.09 1022.89 1022.73 1022.65 1022.49 1022.33 1022.13 1021.97 1021.89 1021.73 1021.53 1021.29 1021.01 1020.85 1020.85 1020.81 1020.77 1020.65 1020.53 1020.37 1020.21 1019.97 1019.89 1019.81 1019.77 1019.73 1019.69 1019.65 1019.65 1019.77 1019.77 1019.65 1019.49 1019.41 1019.21 1019.09 1019.01 1019.01 1018.93 1018.89 1018.93 1018.97 1019.13 1019.13 1019.13 1019.41 1019.73
1024.41 1024.21 1024.09 1023.77 1023.37 1022.97 1022.69 1022.49 1022.29 1022.09 1022.01 1021.81 1021.69 1021.49 1021.33 1021.17 1020.97 1020.81 1020.77 1020.73 1020.69 1020.61 1020.49 1020.33 1020.13 1019.93 1019.81 1019.77 1019.77 1019.77 1019.73 1019.61 1019.49 1019.33 1019.33 1019.45 1019.49 1019.41 1019.25 1019.13 1018.93 1018.81 1018.85 1018.81 1018.73 1018.65 1018.69 1018.89 1019.05 1019.17 1019.21 1019.33
1024.61 1024.53 1024.21 1024.05 1023.81 1023.37 1023.01 1022.77 1022.29 1022.05 1021.81 1021.61 1021.37 1021.25 1021.21 1021.09 1020.93 1020.81 1020.73 1020.61 1020.53 1020.41 1020.21 1020.05 1019.93 1019.85 1019.69 1019.65 1019.69 1019.73 1019.61 1019.49 1019.41 1019.29 1019.29 1019.33 1019.37 1019.33 1019.17 1018.97 1018.81 1018.69 1018.69 1018.77 1018.53 1018.41 1018.45 1018.57 1018.81 1018.97 1019.21 1019.37
1024.97 1024.93 1024.85 1024.57 1024.25 1023.77 1023.49 1023.13 1022.77 1022.29 1021.93 1021.61 1021.37 1021.25 1021.17 1021.05 1020.93 1020.81 1020.69 1020.57 1020.41 1020.21 1020.09 1019.93 1019.77 1019.69 1019.65 1019.57 1019.57 1019.49 1019.49 1019.49 1019.45 1019.29 1019.25 1019.25 1019.17 1019.05 1018.93 1018.85 1018.53 1018.57 1018.49 1018.61 1018.45 1018.21 1018.29 1018.65 1019.09 1019.17 1019.13 1019.25
1025.13 1024.93 1024.73 1024.57 1024.25 1023.97 1023.57 1023.29 1022.89 1022.49 1022.13 1021.77 1021.49 1021.29 1021.17 1021.05 1020.89 1020.69 1020.53 1020.41 1020.25 1020.09 1019.93 1019.81 1019.73 1019.57 1019.45 1019.45 1019.37 1019.33 1019.29 1019.33 1019.33 1019.29 1019.13 1019.01 1018.93 1018.73 1018.85 1018.69 1018.49 1018.41 1018.37 1018.45 1018.01 1018.13 1018.01 1018.01 1018.33 1018.73 1019.21 1019.05
1025.17 1024.93 1024.57 1024.41 1024.17 1023.85 1023.61 1023.17 1022.69 1022.45 1022.21 1021.97 1021.61 1021.37 1021.09 1020.97 1020.81 1020.53 1020.33 1020.17 1020.01 1019.89 1019.77 1019.65 1019.53 1019.41 1019.37 1019.29 1019.25 1019.25 1019.21 1019.17 1019.21 1019.21 1019.17 1019.05 1018.93 1018.85 1018.73 1018.61 1018.29 1018.05 1018.05 1018.13 1018.21 1018.25 1017.77 1017.17 1017.25 1017.13 1017.81 1018.17
1025.01 1024.77 1024.53 1024.33 1024.01 1023.73 1023.21 1022.77 1022.53 1022.29 1022.09 1021.77 1021.45 1021.21 1021.09 1020.89 1020.61 1020.45 1020.21 1019.97 1019.81 1019.69 1019.53 1019.41 1019.33 1019.29 1019.29 1019.25 1019.17 1019.17 1019.13 1019.09 1019.05 1019.01 1019.05 1018.97 1018.93 1018.85 1018.53 1018.25 1018.29 1018.01 1017.89 1017.93 1017.85 1017.93 1017.41 1017.65 1017.45 1016.65 1015.57 1016.81
1024.81 1024.85 1024.81 1024.61 1024.41 1024.01 1023.53 1023.09 1022.61 1022.33 1021.97 1021.61 1021.45 1021.17 1020.81 1020.61 1020.49 1020.21 1020.01 1019.81 1019.65 1019.49 1019.37 1019.25 1019.13 1019.17 1019.17 1019.21 1019.17 1019.13 1019.05 1018.97 1018.93 1018.93 1018.81 1018.69 1018.65 1018.49 1018.49 1018.33 1018.09 1018.21 1017.85 1017.77 1017.77 1017.73 1017.61 1017.29 1017.45 1017.17 1017.01 1016.29
1024.77 1024.85 1024.81 1024.69 1024.45 1024.21 1023.89 1023.37 1022.73 1022.29 1021.89 1021.61 1021.17 1020.85 1020.61 1020.37 1020.17 1019.97 1019.73 1019.49 1019.37 1019.29 1019.25 1019.13 1019.05 1019.05 1019.09 1019.13 1019.17 1019.05 1018.97 1018.93 1018.85 1018.73 1018.65 1018.49 1018.57 1018.53 1018.25 1018.29 1018.45 1018.21 1017.97 1017.77 1017.77 1017.69 1017.53 1017.49 1017.65 1017.93 1018.01 1017.25
Wind_Speed
25 25 24 24 24 24 25 26 26 26 25 24 23 22 22 21 21 21 21 20 22 19 10 8 11 13 14 17 13 11 10 9 10 10 10 8 9 10 9 9 10 17 17 15 16 15 14 13 13 12 7 4
25 24 25 24 25 24 24 24 25 25 25 24 24 22 20 20 20 20 21 22 21 20 20 15 13 7 16 17 14 12 11 11 10 11 10 11 10 12 9 12 13 16 17 17 16 16 15 14 14 13 10 4
16 25 24 24 25 25 24 23 23 24 23 23 22 22 20 20 19 19 21 21 21 22 20 19 18 12 15 12 16 18 14 12 12 12 11 11 10 10 9 10 10 15 18 17 17 18 15 14 13 15 9 5
13 18 24 24 24 23 23 23 21 21 21 21 21 20 20 18 15 15 14 21 16 20 20 20 17 17 14 14 16 16 16 13 13 13 11 10 10 10 8 10 14 13 17 16 16 18 17 13 14 9 7 6
10 13 19 17 20 21 21 20 20 20 19 17 16 18 17 15 12 10 10 11 12 16 13 17 19 18 19 16 16 16 15 17 15 14 12 11 11 9 8 12 5 1 10 17 16 17 17 15 7 7 8 7
7 8 12 12 12 11 13 14 14 13 12 13 10 13 10 9 9 9 8 9 11 9 12 12 19 19 20 20 17 16 15 15 20 16 14 12 12 11 7 9 5 6 8 17 17 15 18 10 6 6 9 8
7 9 8 9 10 9 12 11 10 10 10 8 9 9 9 8 7 8 7 8 10 9 14 13 17 19 20 20 19 18 16 15 21 23 18 15 12 9 9 9 5 4 4 9 15 14 10 7 6 5 7 9
7 8 7 7 8 8 8 9 8 8 8 7 8 8 7 7 8 9 8 10 12 10 8 9 12 16 16 16 16 19 11 10 11 17 23 19 5 1 5 7 6 6 5 6 6 6 6 7 7 6 6 8
9 8 7 6 7 8 7 6 7 7 7 6 7 7 6 7 7 7 7 8 8 7 6 7 7 8 9 9 9 12 9 8 8 8 7 11 2 2 6 6 7 7 7 7 7 6 6 7 6 6 6 7
8 8 8 9 8 8 7 6 7 6 6 6 6 6 6 6 6 6 7 8 8 7 7 7 6 6 7 8 8 8 8 8 8 7 5 6 9 3 6 7 7 8 9 9 7 6 6 7 7 7 7 6
7 8 7 7 8 9 9 7 7 7 6 6 6 6 6 6 6 6 6 6 6 8 8 7 7 6 6 7 7 8 7 8 7 6 6 6 5 8 4 6 7 8 9 10 11 8 7 7 8 7 6 6
7 7 8 8 7 7 9 9 8 8 7 5 6 4 4 4 4 5 5 5 5 4 5 6 6 6 6 5 6 7 7 8 8 7 7 6 6 4 7 6 6 7 9 9 10 10 9 8 7 7 7 7
5 6 6 6 7 8 9 8 8 8 8 7 5 5 4 3 5 4 3 3 4 4 4 3 5 6 5 5 5 5 6 7 9 9 8 8 7 3 1 4 7 5 8 8 8 10 10 10 9 7 7 7
6 5 6 5 5 6 6 7 8 8 7 7 7 7 5 4 3 4 5 4 5 4 4 4 3 3 5 5 4 4 4 5 6 8 8 8 7 5 2 1 2 7 6 8 8 8 10 9 10 9 9 8
5 4 5 5 5 5 6 6 7 7 7 7 7 7 6 5 4 5 4 4 4 3 4 4 4 3 1 3 5 4 4 2 3 5 6 7 8 7 5 4 3 1 5 6 8 8 9 9 8 8 7 7
4 4 4 4 5 5 5 5 6 6 6 7 7 7 7 6 6 5 6 5 4 4 4 4 4 3 4 2 1 3 4 4 3 3 5 5 6 7 6 5 4 4 2 6 7 9 9 8 8 8 8 8
6 6 5 5 4 5 4 5 5 5 5 6 5 5 6 7 7 6 7 7 5 4 4 4 4 4 3 4 4 3 2 4 5 3 4 5 4 6 6 5 5 5 4 5 6 6 8 7 9 7 7 8
8 6 5 5 5 5 5 5 5 5 5 4 5 5 5 5 5 5 6 6 6 5 5 4 4 4 5 4 3 3 4 4 3 5 4 3 3 4 4 6 6 4 6 6 4 6 6 6 8 8 8 8
11 10 8 6 6 6 5 5 5 5 5 5 6 6 6 5 5 5 5 5 5 6 5 5 5 5 6 5 3 3 3 3 4 4 5 5 4 4 3 5 4 5 7 7 8 7 5 7 6 7 8 7
9 9 7 6 6 6 5 5 5 5 5 5 5 5 5 5 5 5 5 4 4 5 6 6 6 6 5 5 3 2 3 2 4 5 4 3 3 5 5 3 5 4 7 7 9 8 7 6 5 7 7 8
9 10 9 7 6 6 5 5 5 5 5 5 6 6 6 6 5 5 5 5 5 5 6 6 6 6 5 4 4 2 2 2 3 3 3 3 3 2 4 4 5 4 6 7 8 7 9 8 7 7 8 9
10 10 9 7 6 4 5 5 5 5 5 6 5 5 6 6 6 6 6 6 6 5 6 5 6 6 5 4 4 3 1 3 2 3 2 4 4 4 3 3 4 5 6 7 7 7 8 9 9 9 8 7
10 11 10 9 7 5 5 5 5 5 5 6 5 5 5 5 6 6 6 7 6 6 6 6 6 5 5 4 4 4 3 3 4 3 2 2 5 5 5 5 5 5 5 6 7 8 9 8 10 9 8 6
9 10 10 12 10 7 6 6 6 5 5 5 5 6 6 7 7 6 7 6 7 6 6 6 6 5 4 4 4 4 5 6 4 6 4 5 4 5 4 4 5 4 4 5 6 8 8 7 8 9 8 8
10 10 11 11 11 10 8 9 9 7 7 6 6 6 6 7 8 7 7 7 6 6 6 6 5 5 5 5 4 4 6 7 7 6 5 3 2 3 4 2 4 4 4 4 5 5 7 6 6 8 7 7
9 8 8 9 9 10 10 10 10 8 7 6 6 6 7 7 7 8 7 7 6 6 5 6 6 5 5 5 5 5 6 5 7 5 5 3 2 3 4 3 1 3 1 2 4 4 2 4 0 2 5 7
10 9 9 9 9 10 9 7 8 9 8 7 6 6 6 7 8 8 7 6 6 5 5 5 5 6 6 5 5 5 6 5 6 6 6 6 5 5 2 4 4 4 4 4 2 4 4 4 4 4 3 6
11 11 11 9 9 10 9 9 8 8 8 7 7 7 7 6 7 9 9 7 6 5 5 5 6 6 6 6 5 5 4 5 6 6 6 6 7 4 3 2 3 5 5 5 2 4 6 3 4 6 10 11
9 9 9 10 12 11 11 8 7 7 7 7 6 5 4 8 8 8 8 7 6 5 5 5 5 5 5 5 5 3 3 4 6 6 6 6 6 5 6 6 3 3 4 5 6 4 3 1 4 6 4 7
8 9 11 13 13 14 13 13 12 10 10 9 7 8 8 8 9 10 7 6 6 6 5 4 3 2 2 4 5 5 4 4 5 6 7 7 6 7 6 6 6 3 3 6 7 7 8 2 1 3 4 4
7 10 11 13 13 13 13 13 11 11 12 11 11 10 10 9 8 7 7 7 6 5 4 3 1 2 2 2 3 4 4 5 5 6 5 6 5 7 7 4 5 6 6 5 5 5 7 8 6 6 3 5
Wind_Direction
31 32 34 35 35 41 38 30 28 27 26 26 29 30 29 25 24 19 15 12 11 357 308 258 275 288 300 290 257 247 247 251 255 255 257 239 238 245 240 226 186 174 175 167 149 145 146 146 137 124 115 104
26 29 30 32 33 34 36 36 29 26 23 22 25 26 28 29 25 23 17 14 11 8 5 340 294 274 277 276 267 257 248 251 249 253 249 248 232 229 218 241 215 179 178 169 152 144 149 152 143 132 126 122
21 26 26 27 29 30 30 31 30 27 22 23 23 21 22 25 26 25 19 16 10 10 7 3 352 306 269 265 275 268 251 244 251 249 253 252 250 219 214 240 229 193 182 166 155 149 150 154 150 140 130 136
19 23 25 23 23 24 25 26 25 25 24 19 20 20 21 23 25 22 20 15 13 10 8 3 2 350 331 298 275 271 265 251 248 250 254 253 251 246 219 231 237 205 196 172 162 150 148 152 149 133 132 139
17 18 23 21 18 18 20 20 21 20 20 18 17 18 13 16 22 21 18 13 10 8 7 4 3 360 352 342 315 288 290 284 256 253 248 245 244 240 204 225 214 150 206 180 164 153 144 150 139 148 143 147
14 12 18 22 18 16 15 14 17 18 17 11 12 14 15 15 15 18 14 18 10 8 5 1 4 2 357 354 346 335 304 287 286 263 257 250 247 236 210 164 168 183 200 183 168 152 147 141 153 166 153 153
10 13 13 14 16 14 13 11 12 15 14 12 10 9 12 13 13 13 18 17 13 9 6 3 6 4 2 358 354 349 344 322 302 289 261 255 253 242 171 166 157 131 155 179 163 152 144 140 155 177 163 160
9 12 8 5 9 13 10 8 5 7 7 13 11 8 9 12 7 8 11 9 12 13 11 6 2 4 2 359 356 353 351 338 321 319 286 260 253 348 141 149 154 157 144 149 154 142 145 148 154 174 180 165
6 7 4 1 1 7 5 7 5 4 360 5 8 9 7 12 8 7 6 5 5 5 11 9 11 4 0 359 356 355 347 341 331 331 329 300 326 156 137 147 159 152 149 145 148 157 159 154 160 174 184 176
1 3 3 0 356 1 358 0 2 1 359 356 3 12 7 5 12 13 8 2 360 1 3 7 17 12 3 358 355 354 347 343 335 332 326 327 312 286 151 162 155 164 151 149 152 162 162 162 169 177 176 173
4 3 358 355 354 358 351 359 357 356 354 351 350 7 4 6 9 10 4 0 359 0 355 359 358 7 10 5 356 351 350 341 336 327 322 325 325 324 301 160 162 160 159 158 161 165 169 173 175 175 176 175
2 357 357 354 354 355 346 354 350 349 344 341 347 358 4 7 3 359 359 353 350 345 355 351 344 355 7 10 1 354 358 344 342 336 329 325 325 358 326 297 177 162 160 167 165 163 171 177 184 179 177 180
353 357 356 355 353 349 347 351 345 339 337 339 336 340 357 358 354 351 346 338 336 328 338 345 346 346 353 1 358 4 2 357 343 343 336 323 312 319 320 324 295 183 170 171 171 171 172 177 183 181 177 181
354 352 357 353 350 341 348 342 336 337 339 329 333 330 335 340 334 336 335 331 325 336 325 325 335 341 340 347 344 3 10 360 350 337 334 328 311 291 240 187 280 306 203 177 176 175 176 180 184 181 179 182
345 343 345 338 341 342 341 332 335 337 329 330 329 321 324 321 321 318 316 323 311 310 304 311 316 315 303 323 337 342 347 2 355 330 329 328 319 298 266 218 177 196 280 211 182 186 178 185 179 184 183 181
335 333 319 324 335 333 324 335 334 328 328 326 324 322 320 316 313 310 309 308 305 298 298 298 301 296 312 304 288 324 325 335 330 322 312 315 307 293 263 250 206 178 196 263 225 188 188 180 184 185 180 181
327 324 325 325 325 315 326 329 329 323 319 317 312 317 317 316 315 310 307 301 289 291 296 296 297 303 294 296 309 317 317 325 323 327 330 326 317 308 284 258 249 204 192 226 249 244 201 180 191 187 179 181
326 312 310 316 320 320 326 325 323 310 311 305 311 315 313 309 304 307 305 299 293 287 287 289 291 291 292 282 300 324 330 333 328 321 326 314 329 310 291 268 253 213 220 216 211 234 238 205 193 181 187 186
327 321 317 319 317 315 318 316 317 307 306 313 309 310 307 305 307 308 305 301 294 295 286 279 283 282 273 280 291 329 323 331 319 318 315 325 332 311 288 256 258 229 230 211 202 215 225 237 210 187 194 185
324 313 306 307 307 311 312 308 306 304 301 302 300 299 300 299 306 310 311 307 295 286 281 275 268 261 270 279 288 310 323 341 320 314 320 309 322 325 319 297 266 232 239 231 222 198 197 222 239 218 194 193
328 323 310 303 295 290 295 296 298 296 300 306 306 306 303 300 303 306 310 307 302 288 278 275 268 265 258 267 273 278 300 319 286 298 306 310 305 265 291 301 284 257 239 240 237 219 199 199 207 225 215 201
333 326 315 298 290 283 280 280 274 274 284 287 283 296 297 300 304 308 309 305 299 290 278 264 263 271 266 264 273 270 260 263 274 280 259 287 290 288 270 279 280 272 245 237 240 228 222 211 197 210 220 225
338 333 328 311 299 299 292 283 275 279 287 281 290 291 290 296 298 303 303 302 297 293 288 288 278 270 273 280 275 273 273 279 279 270 267 243 282 287 261 253 253 261 263 252 237 228 225 218 216 212 203 205
342 341 338 330 313 307 301 299 301 292 282 290 298 297 310 308 308 305 303 298 295 294 290 288 287 285 281 281 276 279 277 270 262 256 266 279 253 278 289 240 251 254 258 259 245 239 233 214 218 219 208 204
348 344 339 335 325 308 312 312 306 299 298 302 300 307 305 307 303 303 302 295 292 291 293 291 288 288 286 276 270 259 256 252 256 245 217 233 253 261 275 277 211 238 217 256 261 229 230 218 210 216 212 215
344 340 333 323 320 315 314 311 303 298 295 289 294 302 302 301 300 295 289 284 284 287 284 286 287 280 273 273 267 254 256 266 255 257 254 226 279 231 234 252 229 248 200 239 232 250 257 234 25 232 205 213
334 327 322 320 313 311 306 292 288 287 284 288 290 287 292 294 294 290 283 275 277 281 283 273 277 281 275 270 262 277 279 265 267 259 255 244 218 274 263 241 259 249 190 239 225 243 245 218 221 205 241 238
327 318 315 313 305 303 295 295 296 290 287 291 286 286 277 284 283 283 281 276 276 279 276 272 276 280 279 269 257 241 260 276 273 269 265 258 246 215 272 266 272 220 205 198 232 256 214 217 197 238 226 219
325 324 328 328 323 317 311 302 300 300 296 276 270 278 296 285 281 280 273 276 280 274 272 280 287 290 286 284 280 257 241 256 260 265 261 262 263 227 212 252 244 267 212 215 209 218 286 233 216 228 267 184
339 342 338 332 326 319 315 312 312 313 307 299 292 287 285 285 278 267 264 265 268 270 269 272 285 311 317 310 302 292 258 258 272 271 261 250 241 252 244 230 244 255 255 220 222 208 223 262 203 2 315 175
345 340 331 322 313 306 301 297 294 295 298 297 294 292 288 282 270 257 258 262 258 257 266 265 321 3 329 285 287 289 288 282 264 265 264 267 257 247 253 235 244 234 240 253 255 231 224 233 212 202 243 270